Year,Month,Day,Hour,Minute,Value (Times are PST for temperature in C)
2015,02,21,00,00,3.80
2015,02,21,00,01,3.80
2015,02,21,00,02,3.80
2015,02,21,00,03,3.80
2015,02,21,00,04,3.80
2015,02,21,00,05,3.80
2015,02,21,00,06,3.80
2015,02,21,00,07,3.80
2015,02,21,00,08,3.80
2015,02,21,00,09,3.80
2015,02,21,00,10,3.70
2015,02,21,00,11,3.70
2015,02,21,00,12,3.70
2015,02,21,00,13,3.70
2015,02,21,00,14,3.60
2015,02,21,00,15,3.60
2015,02,21,00,16,3.60
2015,02,21,00,17,3.60
2015,02,21,00,18,3.60
2015,02,21,00,19,3.60
2015,02,21,00,20,3.60
2015,02,21,00,21,3.60
2015,02,21,00,22,3.60
2015,02,21,00,23,3.60
2015,02,21,00,24,3.60
2015,02,21,00,25,3.60
2015,02,21,00,26,3.60
2015,02,21,00,27,3.60
2015,02,21,00,28,3.60
2015,02,21,00,29,3.60
2015,02,21,00,30,3.60
2015,02,21,00,31,3.60
2015,02,21,00,32,3.60
2015,02,21,00,33,3.60
2015,02,21,00,34,3.60
2015,02,21,00,35,3.60
2015,02,21,00,36,3.60
2015,02,21,00,37,3.60
2015,02,21,00,38,3.60
2015,02,21,00,39,3.60
2015,02,21,00,40,3.60
2015,02,21,00,41,3.60
2015,02,21,00,42,3.60
2015,02,21,00,43,3.60
2015,02,21,00,44,3.60
2015,02,21,00,45,3.60
2015,02,21,00,46,3.60
2015,02,21,00,47,3.60
2015,02,21,00,48,3.60
2015,02,21,00,49,3.60
2015,02,21,00,50,3.60
2015,02,21,00,51,3.60
2015,02,21,00,52,3.60
2015,02,21,00,53,3.60
2015,02,21,00,54,3.60
2015,02,21,00,55,3.60
2015,02,21,00,56,3.60
2015,02,21,00,57,3.60
2015,02,21,00,58,3.60
2015,02,21,00,59,3.60
2015,02,21,01,00,3.60
2015,02,21,01,01,3.60
2015,02,21,01,02,3.60
2015,02,21,01,03,3.50
2015,02,21,01,04,3.50
2015,02,21,01,05,3.50
2015,02,21,01,06,3.40
2015,02,21,01,07,3.40
2015,02,21,01,08,3.40
2015,02,21,01,09,3.30
2015,02,21,01,10,3.30
2015,02,21,01,11,3.30
2015,02,21,01,12,3.30
2015,02,21,01,13,3.30
2015,02,21,01,14,3.20
2015,02,21,01,15,3.20
2015,02,21,01,16,3.20
2015,02,21,01,17,3.10
2015,02,21,01,18,3.10
2015,02,21,01,19,3.10
2015,02,21,01,20,3.00
2015,02,21,01,21,3.00
2015,02,21,01,22,3.00
2015,02,21,01,23,3.00
2015,02,21,01,24,3.10
2015,02,21,01,25,3.10
2015,02,21,01,26,3.10
2015,02,21,01,27,3.10
2015,02,21,01,28,3.10
2015,02,21,01,29,3.20
2015,02,21,01,30,3.20
2015,02,21,01,31,3.20
2015,02,21,01,32,3.20
2015,02,21,01,33,3.20
2015,02,21,01,34,3.30
2015,02,21,01,35,3.30
2015,02,21,01,36,3.30
2015,02,21,01,37,3.30
2015,02,21,01,38,3.30
2015,02,21,01,39,3.30
2015,02,21,01,40,3.30
2015,02,21,01,41,3.20
2015,02,21,01,42,3.20
2015,02,21,01,43,3.20
2015,02,21,01,44,3.20
2015,02,21,01,45,3.20
2015,02,21,01,46,3.20
2015,02,21,01,47,3.20
2015,02,21,01,48,3.20
2015,02,21,01,49,3.20
2015,02,21,01,50,3.20
2015,02,21,01,51,3.20
2015,02,21,01,52,3.20
2015,02,21,01,53,3.20
2015,02,21,01,54,3.20
2015,02,21,01,55,3.20
2015,02,21,01,56,3.30
2015,02,21,01,57,3.30
2015,02,21,01,58,3.30
2015,02,21,01,59,3.30
2015,02,21,02,00,3.30
2015,02,21,02,01,3.30
2015,02,21,02,02,3.30
2015,02,21,02,03,3.30
2015,02,21,02,04,3.30
2015,02,21,02,05,3.30
2015,02,21,02,06,3.30
2015,02,21,02,07,3.30
2015,02,21,02,08,3.30
2015,02,21,02,09,3.30
2015,02,21,02,10,3.30
2015,02,21,02,11,3.30
2015,02,21,02,12,3.30
2015,02,21,02,13,3.30
2015,02,21,02,14,3.30
2015,02,21,02,15,3.30
2015,02,21,02,16,3.20
2015,02,21,02,17,3.20
2015,02,21,02,18,3.20
2015,02,21,02,19,3.20
2015,02,21,02,20,3.20
2015,02,21,02,21,3.20
2015,02,21,02,22,3.20
2015,02,21,02,23,3.20
2015,02,21,02,24,3.20
2015,02,21,02,25,3.20
2015,02,21,02,26,3.20
2015,02,21,02,27,3.20
2015,02,21,02,28,3.20
2015,02,21,02,29,3.20
2015,02,21,02,30,3.20
2015,02,21,02,31,3.20
2015,02,21,02,32,3.20
2015,02,21,02,33,3.20
2015,02,21,02,34,3.20
2015,02,21,02,35,3.20
2015,02,21,02,36,3.20
2015,02,21,02,37,3.20
2015,02,21,02,38,3.20
2015,02,21,02,39,3.20
2015,02,21,02,40,3.20
2015,02,21,02,41,3.20
2015,02,21,02,42,3.20
2015,02,21,02,43,3.20
2015,02,21,02,44,3.20
2015,02,21,02,45,3.30
2015,02,21,02,46,3.30
2015,02,21,02,47,3.30
2015,02,21,02,48,3.30
2015,02,21,02,49,3.30
2015,02,21,02,50,3.30
2015,02,21,02,51,3.30
2015,02,21,02,52,3.30
2015,02,21,02,53,3.30
2015,02,21,02,54,3.30
2015,02,21,02,55,3.30
2015,02,21,02,56,3.30
2015,02,21,02,57,3.30
2015,02,21,02,58,3.30
2015,02,21,02,59,3.30
2015,02,21,03,00,3.30
2015,02,21,03,01,3.30
2015,02,21,03,02,3.30
2015,02,21,03,03,3.30
2015,02,21,03,04,3.30
2015,02,21,03,05,3.30
2015,02,21,03,06,3.20
2015,02,21,03,07,3.30
2015,02,21,03,08,3.30
2015,02,21,03,09,3.30
2015,02,21,03,10,3.30
2015,02,21,03,11,3.20
2015,02,21,03,12,3.20
2015,02,21,03,13,3.20
2015,02,21,03,14,3.20
2015,02,21,03,15,3.20
2015,02,21,03,16,3.20
2015,02,21,03,17,3.20
2015,02,21,03,18,3.20
2015,02,21,03,19,3.20
2015,02,21,03,20,3.20
2015,02,21,03,21,3.20
2015,02,21,03,22,3.20
2015,02,21,03,23,3.20
2015,02,21,03,24,3.20
2015,02,21,03,25,3.20
2015,02,21,03,26,3.20
2015,02,21,03,27,3.20
2015,02,21,03,28,3.20
2015,02,21,03,29,3.20
2015,02,21,03,30,3.20
2015,02,21,03,31,3.20
2015,02,21,03,32,3.20
2015,02,21,03,33,3.20
2015,02,21,03,34,3.20
2015,02,21,03,35,3.20
2015,02,21,03,36,3.20
2015,02,21,03,37,3.20
2015,02,21,03,38,3.20
2015,02,21,03,39,3.20
2015,02,21,03,40,3.20
2015,02,21,03,41,3.20
2015,02,21,03,42,3.20
2015,02,21,03,43,3.20
2015,02,21,03,44,3.20
2015,02,21,03,45,3.20
2015,02,21,03,46,3.20
2015,02,21,03,47,3.10
2015,02,21,03,48,3.10
2015,02,21,03,49,3.10
2015,02,21,03,50,3.10
2015,02,21,03,51,3.10
2015,02,21,03,52,3.10
2015,02,21,03,53,3.10
2015,02,21,03,54,3.10
2015,02,21,03,55,3.00
2015,02,21,03,56,3.00
2015,02,21,03,57,3.00
2015,02,21,03,58,3.00
2015,02,21,03,59,3.00
2015,02,21,04,00,3.00
2015,02,21,04,01,3.00
2015,02,21,04,02,3.00
2015,02,21,04,03,3.00
2015,02,21,04,04,3.00
2015,02,21,04,05,2.90
2015,02,21,04,06,3.00
2015,02,21,04,07,3.00
2015,02,21,04,08,3.00
2015,02,21,04,09,3.00
2015,02,21,04,10,3.00
2015,02,21,04,11,3.00
2015,02,21,04,12,3.00
2015,02,21,04,13,3.00
2015,02,21,04,14,2.90
2015,02,21,04,15,2.90
2015,02,21,04,16,2.90
2015,02,21,04,17,2.90
2015,02,21,04,18,2.90
2015,02,21,04,19,2.90
2015,02,21,04,20,2.90
2015,02,21,04,21,2.80
2015,02,21,04,22,2.80
2015,02,21,04,23,2.80
2015,02,21,04,24,2.80
2015,02,21,04,25,2.80
2015,02,21,04,26,2.90
2015,02,21,04,27,2.90
2015,02,21,04,28,2.90
2015,02,21,04,29,2.80
2015,02,21,04,30,2.80
2015,02,21,04,31,2.80
2015,02,21,04,32,2.80
2015,02,21,04,33,2.80
2015,02,21,04,34,2.80
2015,02,21,04,35,2.80
2015,02,21,04,36,2.80
2015,02,21,04,37,2.80
2015,02,21,04,38,2.80
2015,02,21,04,39,2.80
2015,02,21,04,40,2.80
2015,02,21,04,41,2.80
2015,02,21,04,42,2.80
2015,02,21,04,43,2.80
2015,02,21,04,44,2.80
2015,02,21,04,45,2.80
2015,02,21,04,46,2.80
2015,02,21,04,47,2.80
2015,02,21,04,48,2.80
2015,02,21,04,49,2.80
2015,02,21,04,50,2.80
2015,02,21,04,51,2.80
2015,02,21,04,52,2.80
2015,02,21,04,53,2.80
2015,02,21,04,54,2.80
2015,02,21,04,55,2.80
2015,02,21,04,56,2.80
2015,02,21,04,57,2.80
2015,02,21,04,58,2.80
2015,02,21,04,59,2.80
2015,02,21,05,00,2.80
2015,02,21,05,01,2.80
2015,02,21,05,02,2.80
2015,02,21,05,03,2.80
2015,02,21,05,04,2.70
2015,02,21,05,05,2.70
2015,02,21,05,06,2.70
2015,02,21,05,07,2.70
2015,02,21,05,08,2.70
2015,02,21,05,09,2.70
2015,02,21,05,10,2.70
2015,02,21,05,11,2.60
2015,02,21,05,12,2.60
2015,02,21,05,13,2.60
2015,02,21,05,14,2.60
2015,02,21,05,15,2.60
2015,02,21,05,16,2.50
2015,02,21,05,17,2.50
2015,02,21,05,18,2.40
2015,02,21,05,19,2.40
2015,02,21,05,20,2.40
2015,02,21,05,21,2.40
2015,02,21,05,22,2.40
2015,02,21,05,23,2.30
2015,02,21,05,24,2.30
2015,02,21,05,25,2.30
2015,02,21,05,26,2.30
2015,02,21,05,27,2.20
2015,02,21,05,28,2.20
2015,02,21,05,29,2.20
2015,02,21,05,30,2.10
2015,02,21,05,31,2.10
2015,02,21,05,32,2.10
2015,02,21,05,33,2.00
2015,02,21,05,34,2.00
2015,02,21,05,35,2.00
2015,02,21,05,36,2.00
2015,02,21,05,37,1.90
2015,02,21,05,38,1.90
2015,02,21,05,39,1.90
2015,02,21,05,40,1.90
2015,02,21,05,41,1.80
2015,02,21,05,42,1.80
2015,02,21,05,43,1.80
2015,02,21,05,44,1.80
2015,02,21,05,45,1.70
2015,02,21,05,46,1.70
2015,02,21,05,47,1.70
2015,02,21,05,48,1.60
2015,02,21,05,49,1.60
2015,02,21,05,50,1.60
2015,02,21,05,51,1.50
2015,02,21,05,52,1.50
2015,02,21,05,53,1.40
2015,02,21,05,54,1.40
2015,02,21,05,55,1.40
2015,02,21,05,56,1.30
2015,02,21,05,57,1.30
2015,02,21,05,58,1.30
2015,02,21,05,59,1.30
2015,02,21,06,00,1.30
2015,02,21,06,01,1.30
2015,02,21,06,02,1.30
2015,02,21,06,03,1.20
2015,02,21,06,04,1.20
2015,02,21,06,05,1.20
2015,02,21,06,06,1.20
2015,02,21,06,07,1.20
2015,02,21,06,08,1.20
2015,02,21,06,09,1.10
2015,02,21,06,10,1.10
2015,02,21,06,11,1.10
2015,02,21,06,12,1.10
2015,02,21,06,13,1.00
2015,02,21,06,14,1.00
2015,02,21,06,15,0.90
2015,02,21,06,16,0.90
2015,02,21,06,17,0.90
2015,02,21,06,18,0.80
2015,02,21,06,19,0.80
2015,02,21,06,20,0.80
2015,02,21,06,21,0.80
2015,02,21,06,22,0.90
2015,02,21,06,23,0.90
2015,02,21,06,24,0.90
2015,02,21,06,25,1.00
2015,02,21,06,26,1.00
2015,02,21,06,27,1.00
2015,02,21,06,28,1.10
2015,02,21,06,29,1.10
2015,02,21,06,30,1.10
2015,02,21,06,31,1.10
2015,02,21,06,32,1.20
2015,02,21,06,33,1.20
2015,02,21,06,34,1.20
2015,02,21,06,35,1.20
2015,02,21,06,36,1.20
2015,02,21,06,37,1.20
2015,02,21,06,38,1.20
2015,02,21,06,39,1.20
2015,02,21,06,40,1.20
2015,02,21,06,41,1.20
2015,02,21,06,42,1.20
2015,02,21,06,43,1.20
2015,02,21,06,44,1.10
2015,02,21,06,45,1.10
2015,02,21,06,46,1.10
2015,02,21,06,47,1.10
2015,02,21,06,48,1.10
2015,02,21,06,49,1.10
2015,02,21,06,50,1.10
2015,02,21,06,51,1.10
2015,02,21,06,52,1.10
2015,02,21,06,53,1.10
2015,02,21,06,54,1.10
2015,02,21,06,55,1.10
2015,02,21,06,56,1.10
2015,02,21,06,57,1.10
2015,02,21,06,58,1.00
2015,02,21,06,59,1.00
2015,02,21,07,00,1.00
2015,02,21,07,01,0.90
2015,02,21,07,02,0.90
2015,02,21,07,03,0.80
2015,02,21,07,04,0.80
2015,02,21,07,05,0.80
2015,02,21,07,06,0.80
2015,02,21,07,07,0.80
2015,02,21,07,08,0.70
2015,02,21,07,09,0.70
2015,02,21,07,10,0.70
2015,02,21,07,11,0.70
2015,02,21,07,12,0.70
2015,02,21,07,13,0.70
2015,02,21,07,14,0.70
2015,02,21,07,15,0.70
2015,02,21,07,16,0.70
2015,02,21,07,17,0.70
2015,02,21,07,18,0.70
2015,02,21,07,19,0.70
2015,02,21,07,20,0.70
2015,02,21,07,21,0.70
2015,02,21,07,22,0.60
2015,02,21,07,23,0.60
2015,02,21,07,24,0.60
2015,02,21,07,25,0.60
2015,02,21,07,26,0.60
2015,02,21,07,27,0.60
2015,02,21,07,28,0.60
2015,02,21,07,29,0.60
2015,02,21,07,30,0.60
2015,02,21,07,31,0.60
2015,02,21,07,32,0.50
2015,02,21,07,33,0.50
2015,02,21,07,34,0.50
2015,02,21,07,35,0.50
2015,02,21,07,36,0.50
2015,02,21,07,37,0.60
2015,02,21,07,38,0.60
2015,02,21,07,39,0.60
2015,02,21,07,40,0.60
2015,02,21,07,41,0.70
2015,02,21,07,42,0.70
2015,02,21,07,43,0.70
2015,02,21,07,44,0.70
2015,02,21,07,45,0.70
2015,02,21,07,46,0.70
2015,02,21,07,47,0.70
2015,02,21,07,48,0.70
2015,02,21,07,49,0.70
2015,02,21,07,50,0.70
2015,02,21,07,51,0.70
2015,02,21,07,52,0.70
2015,02,21,07,53,0.70
2015,02,21,07,54,0.70
2015,02,21,07,55,0.80
2015,02,21,07,56,0.80
2015,02,21,07,57,0.80
2015,02,21,07,58,0.80
2015,02,21,07,59,0.80
2015,02,21,08,00,0.90
2015,02,21,08,01,0.90
2015,02,21,08,02,0.90
2015,02,21,08,03,1.00
2015,02,21,08,04,1.10
2015,02,21,08,05,1.20
2015,02,21,08,06,1.30
2015,02,21,08,07,1.30
2015,02,21,08,08,1.50
2015,02,21,08,09,1.50
2015,02,21,08,10,1.60
2015,02,21,08,11,1.70
2015,02,21,08,12,1.80
2015,02,21,08,13,1.80
2015,02,21,08,14,1.90
2015,02,21,08,15,2.00
2015,02,21,08,16,2.00
2015,02,21,08,17,2.10
2015,02,21,08,18,2.20
2015,02,21,08,19,2.30
2015,02,21,08,20,2.30
2015,02,21,08,21,2.40
2015,02,21,08,22,2.40
2015,02,21,08,23,2.50
2015,02,21,08,24,2.50
2015,02,21,08,25,2.50
2015,02,21,08,26,2.60
2015,02,21,08,27,2.70
2015,02,21,08,28,2.70
2015,02,21,08,29,2.70
2015,02,21,08,30,2.70
2015,02,21,08,31,2.80
2015,02,21,08,32,2.80
2015,02,21,08,33,2.80
2015,02,21,08,34,2.90
2015,02,21,08,35,2.90
2015,02,21,08,36,3.00
2015,02,21,08,37,3.10
2015,02,21,08,38,3.20
2015,02,21,08,39,3.20
2015,02,21,08,40,3.30
2015,02,21,08,41,3.40
2015,02,21,08,42,3.40
2015,02,21,08,43,3.40
2015,02,21,08,44,3.50
2015,02,21,08,45,3.60
2015,02,21,08,46,3.60
2015,02,21,08,47,3.70
2015,02,21,08,48,3.70
2015,02,21,08,49,3.80
2015,02,21,08,50,3.80
2015,02,21,08,51,3.90
2015,02,21,08,52,4.00
2015,02,21,08,53,4.00
2015,02,21,08,54,4.10
2015,02,21,08,55,4.20
2015,02,21,08,56,4.20
2015,02,21,08,57,4.30
2015,02,21,08,58,4.30
2015,02,21,08,59,4.40
2015,02,21,09,00,4.50
2015,02,21,09,01,4.50
2015,02,21,09,02,4.60
2015,02,21,09,03,4.70
2015,02,21,09,04,4.70
2015,02,21,09,05,4.80
2015,02,21,09,06,4.80
2015,02,21,09,07,4.90
2015,02,21,09,08,4.90
2015,02,21,09,09,5.00
2015,02,21,09,10,5.10
2015,02,21,09,11,5.10
2015,02,21,09,12,5.20
2015,02,21,09,13,5.20
2015,02,21,09,14,5.30
2015,02,21,09,15,5.30
2015,02,21,09,16,5.30
2015,02,21,09,17,5.40
2015,02,21,09,18,5.40
2015,02,21,09,19,5.40
2015,02,21,09,20,5.50
2015,02,21,09,21,5.50
2015,02,21,09,22,5.50
2015,02,21,09,23,5.60
2015,02,21,09,24,5.60
2015,02,21,09,25,5.70
2015,02,21,09,26,5.70
2015,02,21,09,27,5.80
2015,02,21,09,28,5.80
2015,02,21,09,29,5.80
2015,02,21,09,30,5.90
2015,02,21,09,31,5.90
2015,02,21,09,32,6.00
2015,02,21,09,33,6.00
2015,02,21,09,34,6.10
2015,02,21,09,35,6.10
2015,02,21,09,36,6.20
2015,02,21,09,37,6.20
2015,02,21,09,38,6.30
2015,02,21,09,39,6.40
2015,02,21,09,40,6.40
2015,02,21,09,41,6.50
2015,02,21,09,42,6.60
2015,02,21,09,43,6.60
2015,02,21,09,44,6.70
2015,02,21,09,45,6.70
2015,02,21,09,46,6.80
2015,02,21,09,47,6.80
2015,02,21,09,48,6.90
2015,02,21,09,49,6.90
2015,02,21,09,50,6.90
2015,02,21,09,51,7.00
2015,02,21,09,52,7.00
2015,02,21,09,53,7.10
2015,02,21,09,54,7.10
2015,02,21,09,55,7.20
2015,02,21,09,56,7.20
2015,02,21,09,57,7.20
2015,02,21,09,58,7.30
2015,02,21,09,59,7.30
2015,02,21,10,00,7.40
2015,02,21,10,01,7.40
2015,02,21,10,02,7.50
2015,02,21,10,03,7.60
2015,02,21,10,04,7.60
2015,02,21,10,05,7.70
2015,02,21,10,06,7.70
2015,02,21,10,07,7.80
2015,02,21,10,08,7.80
2015,02,21,10,09,7.80
2015,02,21,10,10,7.80
2015,02,21,10,11,7.80
2015,02,21,10,12,7.90
2015,02,21,10,13,7.90
2015,02,21,10,14,8.00
2015,02,21,10,15,8.00
2015,02,21,10,16,8.10
2015,02,21,10,17,8.10
2015,02,21,10,18,8.20
2015,02,21,10,19,8.20
2015,02,21,10,20,8.30
2015,02,21,10,21,8.30
2015,02,21,10,22,8.30
2015,02,21,10,23,8.40
2015,02,21,10,24,8.40
2015,02,21,10,25,8.40
2015,02,21,10,26,8.50
2015,02,21,10,27,8.50
2015,02,21,10,28,8.50
2015,02,21,10,29,8.60
2015,02,21,10,30,8.60
2015,02,21,10,31,8.70
2015,02,21,10,32,8.70
2015,02,21,10,33,8.70
2015,02,21,10,34,8.80
2015,02,21,10,35,8.80
2015,02,21,10,36,8.90
2015,02,21,10,37,8.90
2015,02,21,10,38,9.00
2015,02,21,10,39,9.00
2015,02,21,10,40,9.00
2015,02,21,10,41,9.10
2015,02,21,10,42,9.10
2015,02,21,10,43,9.20
2015,02,21,10,44,9.20
2015,02,21,10,45,9.20
2015,02,21,10,46,9.30
2015,02,21,10,47,9.30
2015,02,21,10,48,9.30
2015,02,21,10,49,9.30
2015,02,21,10,50,9.40
2015,02,21,10,51,9.40
2015,02,21,10,52,9.40
2015,02,21,10,53,9.40
2015,02,21,10,54,9.40
2015,02,21,10,55,9.50
2015,02,21,10,56,9.50
2015,02,21,10,57,9.60
2015,02,21,10,58,9.60
2015,02,21,10,59,9.60
2015,02,21,11,00,9.60
2015,02,21,11,01,9.60
2015,02,21,11,02,9.60
2015,02,21,11,03,9.50
2015,02,21,11,04,9.50
2015,02,21,11,05,9.50
2015,02,21,11,06,9.40
2015,02,21,11,07,9.50
2015,02,21,11,08,9.50
2015,02,21,11,09,9.50
2015,02,21,11,10,9.50
2015,02,21,11,11,9.60
2015,02,21,11,12,9.60
2015,02,21,11,13,9.60
2015,02,21,11,14,9.60
2015,02,21,11,15,9.70
2015,02,21,11,16,9.70
2015,02,21,11,17,9.70
2015,02,21,11,18,9.70
2015,02,21,11,19,9.80
2015,02,21,11,20,9.80
2015,02,21,11,21,9.80
2015,02,21,11,22,9.80
2015,02,21,11,23,9.80
2015,02,21,11,24,9.80
2015,02,21,11,25,9.90
2015,02,21,11,26,9.90
2015,02,21,11,27,9.90
2015,02,21,11,28,9.80
2015,02,21,11,29,9.80
2015,02,21,11,30,9.70
2015,02,21,11,31,9.70
2015,02,21,11,32,9.60
2015,02,21,11,33,9.60
2015,02,21,11,34,9.60
2015,02,21,11,35,9.50
2015,02,21,11,36,9.50
2015,02,21,11,37,9.60
2015,02,21,11,38,9.60
2015,02,21,11,39,9.60
2015,02,21,11,40,9.70
2015,02,21,11,41,9.70
2015,02,21,11,42,9.80
2015,02,21,11,43,9.80
2015,02,21,11,44,9.90
2015,02,21,11,45,9.90
2015,02,21,11,46,10.00
2015,02,21,11,47,10.00
2015,02,21,11,48,10.10
2015,02,21,11,49,10.10
2015,02,21,11,50,10.10
2015,02,21,11,51,10.10
2015,02,21,11,52,10.10
2015,02,21,11,53,10.10
2015,02,21,11,54,10.10
2015,02,21,11,55,10.10
2015,02,21,11,56,10.10
2015,02,21,11,57,10.20
2015,02,21,11,58,10.20
2015,02,21,11,59,10.20
2015,02,21,12,00,10.20
2015,02,21,12,01,10.20
2015,02,21,12,02,10.20
2015,02,21,12,03,10.20
2015,02,21,12,04,10.20
2015,02,21,12,05,10.30
2015,02,21,12,06,10.30
2015,02,21,12,07,10.40
2015,02,21,12,08,10.40
2015,02,21,12,09,10.50
2015,02,21,12,10,10.50
2015,02,21,12,11,10.60
2015,02,21,12,12,10.70
2015,02,21,12,13,10.70
2015,02,21,12,14,10.80
2015,02,21,12,15,10.80
2015,02,21,12,16,10.90
2015,02,21,12,17,11.00
2015,02,21,12,18,11.10
2015,02,21,12,19,11.10
2015,02,21,12,20,11.20
2015,02,21,12,21,11.20
2015,02,21,12,22,11.30
2015,02,21,12,23,11.40
2015,02,21,12,24,11.40
2015,02,21,12,25,11.50
2015,02,21,12,26,11.60
2015,02,21,12,27,11.60
2015,02,21,12,28,11.70
2015,02,21,12,29,11.70
2015,02,21,12,30,11.80
2015,02,21,12,31,11.80
2015,02,21,12,32,11.80
2015,02,21,12,33,11.80
2015,02,21,12,34,11.90
2015,02,21,12,35,11.90
2015,02,21,12,36,11.90
2015,02,21,12,37,11.90
2015,02,21,12,38,11.90
2015,02,21,12,39,11.90
2015,02,21,12,40,11.90
2015,02,21,12,41,12.00
2015,02,21,12,42,12.00
2015,02,21,12,43,12.10
2015,02,21,12,44,12.10
2015,02,21,12,45,12.20
2015,02,21,12,46,12.30
2015,02,21,12,47,12.30
2015,02,21,12,48,12.30
2015,02,21,12,49,12.40
2015,02,21,12,50,12.40
2015,02,21,12,51,12.50
2015,02,21,12,52,12.50
2015,02,21,12,53,12.60
2015,02,21,12,54,12.60
2015,02,21,12,55,12.60
2015,02,21,12,56,12.70
2015,02,21,12,57,12.70
2015,02,21,12,58,12.70
2015,02,21,12,59,12.80
2015,02,21,13,00,12.80
2015,02,21,13,01,12.90
2015,02,21,13,02,12.90
2015,02,21,13,03,12.90
2015,02,21,13,04,13.00
2015,02,21,13,05,13.00
2015,02,21,13,06,13.10
2015,02,21,13,07,13.20
2015,02,21,13,08,13.30
2015,02,21,13,09,13.30
2015,02,21,13,10,13.30
2015,02,21,13,11,13.30
2015,02,21,13,12,13.30
2015,02,21,13,13,13.40
2015,02,21,13,14,13.40
2015,02,21,13,15,13.40
2015,02,21,13,16,13.40
2015,02,21,13,17,13.40
2015,02,21,13,18,13.40
2015,02,21,13,19,13.40
2015,02,21,13,20,13.40
2015,02,21,13,21,13.40
2015,02,21,13,22,13.40
2015,02,21,13,23,13.40
2015,02,21,13,24,13.50
2015,02,21,13,25,13.50
2015,02,21,13,26,13.60
2015,02,21,13,27,13.60
2015,02,21,13,28,13.60
2015,02,21,13,29,13.60
2015,02,21,13,30,13.60
2015,02,21,13,31,13.60
2015,02,21,13,32,13.60
2015,02,21,13,33,13.70
2015,02,21,13,34,13.70
2015,02,21,13,35,13.80
2015,02,21,13,36,13.80
2015,02,21,13,37,13.80
2015,02,21,13,38,13.90
2015,02,21,13,39,14.00
2015,02,21,13,40,14.00
2015,02,21,13,41,14.10
2015,02,21,13,42,14.10
2015,02,21,13,43,14.10
2015,02,21,13,44,14.10
2015,02,21,13,45,14.10
2015,02,21,13,46,14.00
2015,02,21,13,47,14.00
2015,02,21,13,48,14.00
2015,02,21,13,49,14.00
2015,02,21,13,50,14.00
2015,02,21,13,51,14.00
2015,02,21,13,52,14.00
2015,02,21,13,53,14.00
2015,02,21,13,54,14.00
2015,02,21,13,55,14.00
2015,02,21,13,56,14.00
2015,02,21,13,57,14.00
2015,02,21,13,58,14.00
2015,02,21,13,59,14.00
2015,02,21,14,00,14.00
2015,02,21,14,01,14.00
2015,02,21,14,02,14.10
2015,02,21,14,03,14.10
2015,02,21,14,04,14.10
2015,02,21,14,05,14.10
2015,02,21,14,06,14.10
2015,02,21,14,07,14.10
2015,02,21,14,08,14.10
2015,02,21,14,09,14.10
2015,02,21,14,10,14.10
2015,02,21,14,11,14.10
2015,02,21,14,12,14.20
2015,02,21,14,13,14.20
2015,02,21,14,14,14.20
2015,02,21,14,15,14.20
2015,02,21,14,16,14.30
2015,02,21,14,17,14.30
2015,02,21,14,18,14.30
2015,02,21,14,19,14.30
2015,02,21,14,20,14.30
2015,02,21,14,21,14.30
2015,02,21,14,22,14.30
2015,02,21,14,23,14.30
2015,02,21,14,24,14.30
2015,02,21,14,25,14.30
2015,02,21,14,26,14.30
2015,02,21,14,27,14.30
2015,02,21,14,28,14.30
2015,02,21,14,29,14.30
2015,02,21,14,30,14.30
2015,02,21,14,31,14.30
2015,02,21,14,32,14.30
2015,02,21,14,33,14.30
2015,02,21,14,34,14.30
2015,02,21,14,35,14.40
2015,02,21,14,36,14.40
2015,02,21,14,37,14.40
2015,02,21,14,38,14.40
2015,02,21,14,39,14.40
2015,02,21,14,40,14.50
2015,02,21,14,41,14.50
2015,02,21,14,42,14.60
2015,02,21,14,43,14.60
2015,02,21,14,44,14.60
2015,02,21,14,45,14.60
2015,02,21,14,46,14.60
2015,02,21,14,47,14.60
2015,02,21,14,48,14.60
2015,02,21,14,49,14.60
2015,02,21,14,50,14.60
2015,02,21,14,51,14.60
2015,02,21,14,52,14.60
2015,02,21,14,53,14.60
2015,02,21,14,54,14.60
2015,02,21,14,55,14.60
2015,02,21,14,56,14.60
2015,02,21,14,57,14.60
2015,02,21,14,58,14.60
2015,02,21,14,59,14.60
2015,02,21,15,00,14.60
2015,02,21,15,01,14.60
2015,02,21,15,02,14.60
2015,02,21,15,03,14.60
2015,02,21,15,04,14.60
2015,02,21,15,05,14.60
2015,02,21,15,06,14.60
2015,02,21,15,07,14.50
2015,02,21,15,08,14.50
2015,02,21,15,09,14.50
2015,02,21,15,10,14.50
2015,02,21,15,11,14.50
2015,02,21,15,12,14.50
2015,02,21,15,13,14.40
2015,02,21,15,14,14.40
2015,02,21,15,15,14.40
2015,02,21,15,16,14.40
2015,02,21,15,17,14.40
2015,02,21,15,18,14.40
2015,02,21,15,19,14.40
2015,02,21,15,20,14.40
2015,02,21,15,21,14.40
2015,02,21,15,22,14.40
2015,02,21,15,23,14.40
2015,02,21,15,24,14.40
2015,02,21,15,25,14.40
2015,02,21,15,26,14.40
2015,02,21,15,27,14.50
2015,02,21,15,28,14.50
2015,02,21,15,29,14.50
2015,02,21,15,30,14.50
2015,02,21,15,31,14.50
2015,02,21,15,32,14.50
2015,02,21,15,33,14.60
2015,02,21,15,34,14.60
2015,02,21,15,35,14.60
2015,02,21,15,36,14.60
2015,02,21,15,37,14.60
2015,02,21,15,38,14.60
2015,02,21,15,39,14.60
2015,02,21,15,40,14.60
2015,02,21,15,41,14.60
2015,02,21,15,42,14.60
2015,02,21,15,43,14.60
2015,02,21,15,44,14.60
2015,02,21,15,45,14.60
2015,02,21,15,46,14.60
2015,02,21,15,47,14.60
2015,02,21,15,48,14.50
2015,02,21,15,49,14.50
2015,02,21,15,50,14.50
2015,02,21,15,51,14.50
2015,02,21,15,52,14.50
2015,02,21,15,53,14.40
2015,02,21,15,54,14.40
2015,02,21,15,55,14.40
2015,02,21,15,56,14.40
2015,02,21,15,57,14.40
2015,02,21,15,58,14.40
2015,02,21,15,59,14.40
2015,02,21,16,00,14.40
2015,02,21,16,01,14.40
2015,02,21,16,02,14.40
2015,02,21,16,03,14.40
2015,02,21,16,04,14.40
2015,02,21,16,05,14.40
2015,02,21,16,06,14.40
2015,02,21,16,07,14.30
2015,02,21,16,08,14.30
2015,02,21,16,09,14.30
2015,02,21,16,10,14.30
2015,02,21,16,11,14.30
2015,02,21,16,12,14.30
2015,02,21,16,13,14.30
2015,02,21,16,14,14.30
2015,02,21,16,15,14.30
2015,02,21,16,16,14.30
2015,02,21,16,17,14.30
2015,02,21,16,18,14.30
2015,02,21,16,19,14.30
2015,02,21,16,20,14.30
2015,02,21,16,21,14.30
2015,02,21,16,22,14.30
2015,02,21,16,23,14.30
2015,02,21,16,24,14.30
2015,02,21,16,25,14.30
2015,02,21,16,26,14.30
2015,02,21,16,27,14.20
2015,02,21,16,28,14.20
2015,02,21,16,29,14.20
2015,02,21,16,30,14.30
2015,02,21,16,31,14.30
2015,02,21,16,32,14.30
2015,02,21,16,33,14.30
2015,02,21,16,34,14.30
2015,02,21,16,35,14.40
2015,02,21,16,36,14.40
2015,02,21,16,37,14.40
2015,02,21,16,38,14.40
2015,02,21,16,39,14.50
2015,02,21,16,40,14.50
2015,02,21,16,41,14.50
2015,02,21,16,42,14.60
2015,02,21,16,43,14.60
2015,02,21,16,44,14.60
2015,02,21,16,45,14.60
2015,02,21,16,46,14.60
2015,02,21,16,47,14.60
2015,02,21,16,48,14.60
2015,02,21,16,49,14.60
2015,02,21,16,50,14.50
2015,02,21,16,51,14.50
2015,02,21,16,52,14.50
2015,02,21,16,53,14.50
2015,02,21,16,54,14.50
2015,02,21,16,55,14.50
2015,02,21,16,56,14.50
2015,02,21,16,57,14.40
2015,02,21,16,58,14.40
2015,02,21,16,59,14.40
2015,02,21,17,00,14.40
2015,02,21,17,01,14.30
2015,02,21,17,02,14.30
2015,02,21,17,03,14.20
2015,02,21,17,04,14.20
2015,02,21,17,05,14.20
2015,02,21,17,06,14.10
2015,02,21,17,07,14.10
2015,02,21,17,08,14.00
2015,02,21,17,09,14.00
2015,02,21,17,10,14.00
2015,02,21,17,11,13.90
2015,02,21,17,12,13.90
2015,02,21,17,13,13.80
2015,02,21,17,14,13.80
2015,02,21,17,15,13.70
2015,02,21,17,16,13.70
2015,02,21,17,17,13.70
2015,02,21,17,18,13.60
2015,02,21,17,19,13.60
2015,02,21,17,20,13.50
2015,02,21,17,21,13.50
2015,02,21,17,22,13.40
2015,02,21,17,23,13.40
2015,02,21,17,24,13.30
2015,02,21,17,25,13.20
2015,02,21,17,26,13.10
2015,02,21,17,27,13.00
2015,02,21,17,28,12.90
2015,02,21,17,29,12.90
2015,02,21,17,30,12.80
2015,02,21,17,31,12.70
2015,02,21,17,32,12.60
2015,02,21,17,33,12.50
2015,02,21,17,34,12.40
2015,02,21,17,35,12.30
2015,02,21,17,36,12.20
2015,02,21,17,37,12.10
2015,02,21,17,38,12.10
2015,02,21,17,39,12.00
2015,02,21,17,40,11.90
2015,02,21,17,41,11.80
2015,02,21,17,42,11.70
2015,02,21,17,43,11.70
2015,02,21,17,44,11.60
2015,02,21,17,45,11.50
2015,02,21,17,46,11.50
2015,02,21,17,47,11.40
2015,02,21,17,48,11.40
2015,02,21,17,49,11.30
2015,02,21,17,50,11.30